sat.trackr.live / text

‹ back to catalog

KUIPER-00091

NORAD 64836 · 2025-151W

PAYLOAD ACTIVE UNKNOWN

§ Identity

Operator
Country
US
Launch date
2025-07-16
Launch site
AFETR
Launch vehicle
Mass (kg)
RCS (m²)

External: N2YO · Heavens-Above · Gunter

§ Orbital elements

Epoch: 2026-05-24T15:33:41.064480Z

Period
97.32 min
Inclination
51.9015°
Eccentricity
0.0000585
Mean motion
14.79676410 rev/d
Perigee alt
629.9 km
Apogee alt
630.8 km
Semi-major
7,008.5 km
B*
4.4347e-4
RAAN
307.2131°
Arg perigee
103.5455°
Mean anomaly
256.5573°
Rev number
4,679

§ Raw data

KUIPER-000911 64836U 25151W   26144.64839195  .00003141  00000+0  44347-3 0  99962 64836  51.9015 307.2131 0000585 103.5455 256.5573 14.79676410 46792

JSON: /api/v1/satellites/64836 · /tle

For live sub-satellite position, see the globe view (requires WebGL).

§ Visibility from observer

Set your observer location to see the next 7 days of passes ≥ 10°. The values pass through the URL so the page stays shareable.

No JS? Fill the form by hand. The geolocation button needs JavaScript.